Pagrindinis puslapis
METAR-TAF:

METAR-TAF

Oro uostai :

Arasatuba, San Paulas, Brazilija

platuma: 21-08-39S, ilguma: 050-25-35W, Aukštis: 415 m

Dabartinis oras

Ataskaita buvo paskelbta 3 valandos ir 58 minutes, ne 09:00 UTC
Vėjas 4 kt iš Pietryčių
Temperatūra 12°C
Drėgmė 71%
Slėgis 1018 hPa
Matomumas 10 km arba daugiau
nėra debesų žemiau 1500 m ir nėra kamuolinių lietaus debesų

METAR: SBAU 010900Z 13004KT CAVOK 12/07 Q1018

Laikas: 09:58 (12:58 UTC)


TAF: trūkstamas

Orai ataskaitas ir orų prognozės (METAR, TAF).

turimą stotys yra geltonos ir raudonos taškus žemėlapyje.

Perkelti pele per norėdami pamatyti stoties vardą.

Tada spustelėkite, norėdami matyti oro stebėjimo ir prognozės.

Norėdami pakeisti žemėlapį: spustelėkite ant žalios mygtukų su juodo kryžiaus žemyn,; žalią mygtuką su brūkšneliu, jei norite nutolinti; arba žalių rodyklių gretimoms žemėlapius.


METAR-TAF: